AMAZONAS NEXUS

Last updated on Thu Nov 21 2024 00:02:45 GMT+0000 (Coordinated Universal Time)

1 55508U 23017A 24325.31507694 -.00000281 00000+0 00000+0 0 9997 2 55508 0.0448 41.5989 0001640 212.3355 218.3210 1.00269422 1294
UTC large
Height (km)
Speed (km/s)
/
Latitude / Longitude
Inclination (degrees)
Orbital Period (minutes)
Azimuth
Elevation
Range (km)
Doppler Factor

Next 0 passes for location: London (51.5072 / 0.1276)

Sorry there are no passes over London.